Location: Devore Heights
(34.2372°N, 117.4156°W)
Time: 20:01:15
(UTC+00:00)

Vanguard 1 - Pass Details

Date: 15 September 2024
Orbit: 648 x 3825 km, 34.3° (Epoch: 13 October)

Event Time Altitude Azimuth Distance (km) Brightness Sun altitude
Rises 02:37:05 0° 273° (W) 3,123 14.9 -9.1°
Reaches altitude 10° 02:40:12 10° 253° (WSW) 2,065 12.8 -9.7°
Maximum altitude 02:43:11 18° 210° (SSW) 1,598 11.4 -10.4°
Drops below altitude 10° 02:46:15 10° 167° (SSE) 2,118 11.6 -11.0°
Enters shadow 02:48:44 - 151° (SSE) 2,949 12.1 -11.5°
